Regional Weather Roundup
Issued by NWS

Home | Current Version | Previous Version | Text Only | Print | Product List | Glossary On
Versions: 1 2 3 4 5 6 7 8 9 10 11 12 13 14 15 16 17 18 19 20 21 22 23 24 25 26 27 28 29 30 31 32 33 34 35 36 37 38 39 40 41 42 43 44 45 46 47 48 49 50
000
ASHW40 PHFO 172232
RWRHI

WEATHER ROUNDUP FOR HAWAII
NATIONAL WEATHER SERVICE HONOLULU HI
1200 PM HST TUE OCT 17 2017

THIS IS AN AUTOMATED REPORT THAT HAS NOT BEEN QUALITY CONTROLLED.

NOTE..."FAIR" INDICATES FEW OR NO CLOUDS BELOW 12,000 FEET WITH NO
SIGNIFICANT WEATHER AND/OR OBSTRUCTIONS TO VISIBILITY.

* - THESE SITES REPORT LIMITED FIELDS
# - BUOY DATA PROVIDED BY PACIFIC ISLANDS OCEAN OBSERVING SYSTEM.

HIZ001>004-172300-
KAUAI-NIIHAU-

CITY           SKY/WX    TMP DP  RH WIND       PRES   REMARKS
LIHUE APT      MOSUNNY   84  67  56 NE25      30.10F
PORT ALLEN*      N/A     84 N/A N/A NE24G32     N/A
POIPU*           N/A     82 N/A N/A NE13G25     N/A
PRINCEVILLE*     N/A     79 N/A N/A E15G24      N/A
KOKOLE POINT*  NOT AVBL
MOLOAA DAIRY*    N/A     82  70  65 NE5G16      N/A
WAIMEA HTS*    NOT AVBL
PUU OPAE*      NOT AVBL
PUU LUA*       NOT AVBL
MAKAHA RIDGE*    N/A     79  59  50 N3G12       N/A
$$

HIZ005>011-172300-
OAHU-

CITY           SKY/WX    TMP DP  RH WIND       PRES   REMARKS
HONOLULU       MOSUNNY   84  61  45 NE22G31   30.05F
KALAELOA       MOSUNNY   84  61  45 NE12G28   30.05F
KANEOHE MCB    MOSUNNY   84  67  56 NE14G25   30.05F
WHEELER FIELD  FAIR      80  65  60 NE18G29   30.06F
BELLOWS*         N/A    N/A N/A N/A NE25G31     N/A
KAHUKU*          N/A    N/A N/A N/A NE12G22     N/A
WHEELER*       NOT AVBL
WAIANAE HARBOR NOT AVBL
DILLINGHAM*      N/A     84  66  54 SW12G25     N/A
KAHUKU TRN*      N/A     82  68  61 W17G32      N/A
KAWAILOA*        N/A     75  64  69 E12G30      N/A
KII*             N/A     82  68  61 E21G30      N/A
MAKUA RANGE*     N/A     84  61  45 SW15G33     N/A
OAHU FOREST NW NOT AVBL
SCHOFIELD BRK*   N/A     70  54  56 MISG        N/A
SCHOFIELD S*   NOT AVBL
WAIANAE VLY*   NOT AVBL
KUAOKALA*      NOT AVBL
HONOULIUULI*   NOT AVBL
MOKUOLOE IS*   NOT AVBL
PALEHUA*       NOT AVBL
WAIAWA PHB*    NOT AVBL
$$

HIZ012>013-172300-
MOLOKAI-

CITY           SKY/WX    TMP DP  RH WIND       PRES   REMARKS
MOLOKAI AIRPT  MOSUNNY   83  65  54 NE17G29   30.06F
KALAUPAPA      NOT AVBL
MAKAPULAPAI*   NOT AVBL
MOLOKAI 1*     NOT AVBL
PUU ALII*        N/A     61  58  91 N3G18       N/A
$$

HIZ016-172300-
KAHOOLAWE-

CITY           SKY/WX    TMP DP  RH WIND       PRES   REMARKS
KAHOOLAWE*     NOT AVBL
HAKIOAWA*        N/A     78  62  57 MISG      30.43F
HONOKANAIA*      N/A     84  60  43 N9G36     29.98
KANELOA*         N/A    N/A N/A N/A E21G36    30.12R
KEALIALALO*    NOT AVBL
LUA MAKIKA*    NOT AVBL
$$

HIZ014>015-172300-
LANAI-

CITY           SKY/WX    TMP DP  RH WIND       PRES   REMARKS
LANAI CITY     FAIR      78  63  59 NE30G38   30.05F
LANAI 1*       NOT AVBL
$$

HIZ017>028-172300-
MAUI-

CITY           SKY/WX    TMP DP  RH WIND       PRES   REMARKS
KAHULUI        PTSUNNY   82  67  60 NE17G25   30.05F
KAPALUA-W MAUI PTSUNNY   77  64  65 NE26G37   30.04
HANA AIRPORT   NOT AVBL
HANA*            N/A     79 N/A N/A NE14G22     N/A
HALEAKALA SUMM NOT AVBL
MAALAEA BAY*     N/A     82 N/A N/A NE28G46     N/A
HALEAKALA*     NOT AVBL
KAUPO GAP*     NOT AVBL
KULA 1*          N/A     61  55  82 W3G9        N/A
$$

HIZ023>026-172300-
BIG ISLAND OF HAWAII COAST AND LOWER SLOPES-

CITY           SKY/WX    TMP DP  RH WIND       PRES   REMARKS
KAILUA KONA    PTSUNNY   83  65  54 SW8       29.96F
HILO           MOSUNNY   82  67  60 N13       30.06F
HONOKAA*         N/A     75 N/A N/A VRB1        N/A
KAWAIHAE MWT*    N/A     86 N/A N/A SW6G14      N/A
KAWAIHAE*      NOT AVBL
SOUTH POINT*     N/A     79 N/A N/A N25G37      N/A
UPOLU AIRPORT* NOT AVBL
KAMUELA*       NOT AVBL
HAKALAU*         N/A     55  53  93 NE5G12      N/A
KALOKO-HONOKO*   N/A     86  66  51 S7        29.95F
PALI 2*          N/A     73  57  56 SW18G35     N/A
KEALAKOMO*       N/A     84  64  51 NE21G35     N/A
KAUPULEHU*     NOT AVBL
KAPAPALA*        N/A     80  57  44 NE15G32     N/A
LOWER KAHUKU*    N/A    108 N/A N/A SE3G15      N/A
PUHE CS*         N/A     86  55  35 SW5G17      N/A
PUHO CS*         N/A     85  65  51 W3          N/A
PTA KEAMUKU*     N/A     72  54  53 NE30G48     N/A
WAIKOLOA*      NOT AVBL
$$

HIZ027>028-172300-
BIG ISLAND OF HAWAII INTERIOR AND SUMMMITS-

CITY           SKY/WX    TMP DP  RH WIND       PRES   REMARKS
BRADSHAW FIELD SUNNY     64  49  59 S18G26    30.29F
MK VISITOR CEN NOT AVBL
MAUNA KEA*     NOT AVBL
MAUNA LOA*       N/A     55   3  12 MISG        N/A
MAUNA LOA 1*   NOT AVBL
PTA KIPUKA*      N/A    N/A N/A N/A W16G26      N/A
PTA RANGE 17*    N/A     52  34  50 NW18G31     N/A
PTA WEST*        N/A     75  48  38 SW7G20      N/A
NENE CABIN*      N/A     57  45  62 E8G16       N/A
AHUMOA*        NOT AVBL
PTA PORTABLE*  NOT AVBL
PUU MALI*        N/A     61  50  67 E20G39      N/A
$$

HIC003-172300-
NORTHWEST ISLANDS-

CITY           SKY/WX    TMP DP  RH WIND       PRES   REMARKS
MIDWAY ISLAND  PTSUNNY   81  72  74 E23       30.22F
MIDWAY NOS*    NOT AVBL
FRENCH FRIGATE NOT AVBL
$$

PHZ110>124-180-172300-
BUOY REPORTS

STATION/POSITION TIME  TEMP    WIND        PRES    WAVE   SWELL
                       AIR SEA DIR/SP/G            HT/PER HT/DIR
                 (UTC) (F)     (DEG/KT/KT) (MB)    (FT/S) (FT/D)
BUOY 51001       2210   79 81   70/ 21/ 27 1021.0
BUOY 51101       2150   78 81   60/ 21/ 27 1021.3F  10/10   7/ 90
BUOY 51100       NOT AVBL
BUOY 51002       2210   80 80   60/ 25/ 31 1013.5
BUOY 51003       2150   80 82   60/ 21/ 25 1015.5F  10/ 9   5/130
BUOY 51004       2210   79 80   50/ 19/ 23 1014.6
WAIMEA BAY#      2202      78                N/A     8/ 9   2/320
MOKAPU POINT#    2204      81                N/A    10/ 9   3/ 60
LANAI#           NOT AVBL
BARBERS PT 2#    NOT AVBL
PAUWELA#         NOT AVBL
HILO#            2157      80                N/A     9/ 9   3/ 50
KANEOHE BAY#     NOT AVBL
KANEOHE BAY 2#   NOT AVBL
HANALEI#         2152      81                N/A    10/ 8   3/330
KAHULUI HARBOR   2200   78 79   50/ 12/ 17 1017.9
HONOLULU HARBOR  2200   80 80   30/  9/ 24 1018.1
PEARL HARBOR#    2130      80                N/A     5/14   3/160
KILO NALU        NOT AVBL
HILO HARBOR      NOT AVBL
MOKUOLOE         2136   80 80   60/ 18/ 21 1018.8F
NAWILIWILI       2200   80      50/ 18/ 22 1019.0
WHOTS BUOY       NOT AVBL
BUOY 51028       NOT AVBL
$$

......................KEY........................................
  SKY/WX - SKY CONDITIONS/PRESENT WEATHER
  TMP    - TEMPERATURE IN FAHRENHEIT
  DWPT   - DEWPOINT IN FAHRENHEIT
  RH     - RELATIVE HUMIDITY IN PERCENT
  WIND   - DIRECTION AND SPEED /MPH FOR ISLANDS...KTS FOR BUOYS/
  PRES   - MEAN SEA LEVEL PRESSURE IN INCHES OF HG
  VSB    - VISIBILITY IN MILES
  HX     - HEAT INDEX
  WCI    - WIND CHILL INDEX
  VRB    - VARIABLE WIND DIRECTION
  N/A    - NOT AVAILABLE



USA.gov is the U.S. government's official web portal to all federal, state and local government web resources and services.